Flag for Germany Weather past 2 weeks in Westerstede, Lower Saxony, Germany

Now
59 °F

Passing clouds.


Feels Like: 59 °F
Forecast: 48 / 73 °F
Wind: 5 mph from Northeast

Location: Wittmundhaven

Current Time: Aug 27, 2014 at 9:52:43 PM

Latest Report: Aug 27, 2014 at 9:20 PM


Visibility: N/A

Pressure: 30.04 "Hg

Humidity: 88%

Dew point: 55 °F

Location of WesterstedeLocation

Historic Weather in Westerstede — Graph

°F

Westerstede temperature yesterday

Maximum temperature yesterday: 63 °F (at 2:20 PM)
Minimum temperature yesterday: 46 °F (at 5:20 AM)
Average temperature yesterday: 55 °F

Past Weeks' High & Low Weather Summary

 TemperatureHumidityPressure
High68 °F (Aug 13, 1:20 PM)100% (Aug 14, 11:20 PM)30.04 "Hg (Aug 14, 11:20 PM)
Low46 °F (Aug 21, 5:20 AM)45% (Aug 25, 4:20 PM)29.47 "Hg (Aug 18, 6:20 AM)
Average56 °F81%29.81 "Hg
* Reported Aug 12 7:20 PM — Aug 27 7:20 PM, Westerstede, Weather by CustomWeather, © 2014

Note: Actual official high and low records may vary slightly from our data, if they occured in-between our weather recording intervals... More about our weather records

Advertising

Westerstede weather history for previous 24 hours

 ConditionsComfort  
Time TempWeatherWind HumidityBarometerVisibility
7:20 PM
Aug 27
64 °FPassing clouds.5 mph73%30.04 "HgN/A
6:20 PM64 °FPassing clouds.8 mph68%30.04 "HgN/A
5:20 PM66 °FPassing clouds.8 mph64%30.04 "HgN/A
4:20 PM66 °FScattered clouds.9 mph64%30.04 "HgN/A
3:20 PM66 °FScattered clouds.9 mph68%30.04 "HgN/A
2:20 PM66 °FScattered clouds.8 mph68%30.04 "HgN/A
1:20 PM66 °FScattered clouds.7 mph68%30.01 "HgN/A
12:20 PM66 °FScattered clouds.5 mph64%30.01 "HgN/A
11:20 AM64 °FScattered clouds.3 mph68%30.01 "HgN/A
10:20 AM64 °FScattered clouds.5 mph73%30.01 "HgN/A
9:20 AM61 °FPassing clouds.3 mph88%29.98 "HgN/A
8:20 AM57 °FPassing clouds.2 mph82%29.98 "HgN/A
7:20 AM48 °FFog.2 mph100%29.95 "HgN/A
6:20 AM48 °FFog.5 mph94%29.95 "HgN/A
5:20 AM46 °FFog.2 mph100%29.92 "HgN/A
4:20 AM46 °FFog.3 mph100%29.92 "HgN/A
3:20 AM46 °FFog.2 mph100%29.92 "HgN/A
2:20 AM48 °FFog.3 mph94%29.89 "HgN/A
1:20 AM48 °FFog.2 mph94%29.89 "HgN/A
12:20 AM48 °FCool.2 mph94%29.89 "HgN/A
11:20 PM
Aug 26
50 °FPassing clouds.1 mph94%29.86 "HgN/A
10:20 PM50 °FPassing clouds.3 mph94%29.86 "HgN/A
9:20 PM54 °FPassing clouds.3 mph88%29.86 "HgN/A
Weather by CustomWeather, © 2014

See weather overviewHow to use our weather pages